SCP
0 0 0 0 0 0 0 0 0 0 0 0 0 0 0 0 0 0 0 0 0 0 0 0 0 0 0 0 0 0 0 0 0 0 0 0 0 0 0 0 0 0 0
0 0 0 0 0 0 0 0 0 0 0 0 0 0 0 0 0 0 0 0 0 0 0 0 0 0 0 0 0 0 0 0 0 0 0 0 0 0 0 0 0 0 0
0 0 0 0 0 0 0 0 0 0 0 0 0 0 0 0 0 0 0 0 0 0 0 0 0 0 0 0 0 0 0 0 0 0 0 0 0 0 0 0 0 0 0
0 0 0 0 0 0 0 0 0 0 0 0 0 0 0 0 0 0 0 0 0 0 0 0 0 0 0 0 0 0 0 0 0 0 0 0 0 0 0 0 0 0 0
0 0 0 0 0 0 0 0 0 0 0 0 0 0 0 0 0 0 0 0 0 0 0 0 0 0 0 0 0 0 0 0 0 0 0 0 0 0 0 0 0 0 0
0 0 0 0 0 0 0 0 0 0 0 0 0 0 0 0 0 0 0 0 0 0 0 0 0 0 0 0 0 0 0 0 0 0 0 0 0 0 0 0 0 0 0
0 0 0 0 0 0 0 0 0 0 0 0 0 0 0 0 0 0 0 0 0 0 0 0 0 0 0 0 0 0 0 0 0 0 0 0 0 0 0 0 0 0 0
0 0 0 0 0 0 0 0 0 0 0 0 0 0 0 0 0 0 0 0 0 0 0 0 0 0 0 0 0 0 0 0 0 0 0 0 0 0 0 0 0 0 0
0 0 0 0 0 0 0 0 0 0 0 0 0 0 0 0 0 0 0 0 0 0 0 0 0 0 0 0 0 0 0 0 0 0 0 0 0 0 0 0 0 0 0
0 0 0 0 0 0 0 0 0 0 0 0 0 0 0 0 0 0 0 0 0 0 0 0 0 0 0 0 0 0 0 0 0 0 0 0 0 0 0 0 0 0 0
0 0 0 0 0 0 0 0 0 0 0 0 0 0 0 0 0 0 0 0 0 0 0 0 0 0 0 0 0 0 0 0 0 0 0 0 0 0 0 0 0 0 0
0 0 0 0 0 0 0 0 0 0 0 0 0 0 0 0 0 0 0 0 0 0 0 0 0 0 0 0 0 0 0 0 0 0 0 0 0 0 0 0 0 0 0
0 0 0 0 0 0 0 0 0 0 0 0 0 0 0 0 0 0 0 0 0 0 0 0 0 0 0 0 0 0 0 0 0 0 0 0 0 0 0 0 0 0 0
0 0 0 0 0 0 0 0 0 0 0 0 0 0 0 0 0 0 0 0 0 0 0 0 0 0 0 0 0 0 0 0 0 0 0 0 0 0 0 0 0 0 0
0 0 0 0 0 0 0 0 0 0 0 0 0 0 0 0 0 0 0 0 0 0 0 0 0 0 0 0 0 0 0 0 0 0 0 0 0 0 0 0 0 0 0
0 0 0 0 0 0 0 0 0 0 0 0 0 0 0 0 0 0 0 0 0 0 0 0 0 0 0 0 0 0 0 0 0 0 0 0 0 0 0 0 0 0 0
0 0 0 0 0 0 0 0 0 0 0 0 0 0 0 0 0 0 0 0 0 0 0 0 0 0 0 0 0 0 0 0 0 0 0 0 0 0 0 0 0 0 0
0 0 0 0 0 0 0 0 0 0 0 0 0 0 0 0 0 0 0 0 0 0 0 0 0 0 0 0 0 0 0 0 0 0 0 0 0 0 0 0 0 0 0
0 0 0 0 0 0 0 0 0 0 0 0 0 0 0 0 0 0 0 0 0 0 0 0 0 0 0 0 0 0 0 0 0 0 0 0 0 0 0 0 0 0 0
0 0 0 0 0 0 0 0 0 0 0 0 0 0 0 0 0 0 0 0 0 0 0 0 0 0 0 0 0 0 0 0 0 0 0 0 0 0 0 0 0 0 0
0 0 0 0 0 0 0 0 0 0 0 0 0 0 0 0 0 0 0 0 0 0 0 0 0 0 0 0 0 0 0 0 0 0 0 0 0 0 0 0 0 0 0
0 0 0 0 0 0 0 0 0 0 0 0 0 0 0 0 0 0 0 0 0 0 0 0 0 0 0 0 0 0 0 0 0 0 0 0 0 0 0 0 0 0 0
0 0 0 0 0 0 0 0 0 0 0 0 0 0 0 0 0 0 0 0 0 0 0 0 0 0 0 0 0 0 0 0 0 0 0 0 0 0 0 0 0 0 0
0 0 0 0 0 0 0 0 0 0 0 0 0 0 0 0 0 0 0 0 0 0 0 0 0 0 0 0 0 0 0 0 0 0 0 0 0 0 0 0 0 0 0
0 0 0 0 0 0 0 0 0 0 0 0 0 0 0 0 0 0 0 0 0 0 0 0 0 0 0 0 0 0 0 0 0 0 0 0 0 0 0 0 0 0 0
0 0 0 -0 -0 -0 0 0 0 0 0 0 0 0 0 0 0 0 0 0 0 0 0 0 0 0 0 0 0 0 0 0 0 0 0 0 0 0 0 0 0 0 0
Wind_Speed_500mb
22 21 18 17 14 11 9 7 2 2 5 7 10 13 20 21 21 22 20 19 17 18 15 18 17 16 18 15 18 17 18 18 17 18 21 20 21 21 21 22 21 21 22
29 27 21 23 20 16 15 15 14 11 11 14 13 13 18 25 29 29 29 28 24 22 20 17 19 20 16 15 15 16 16 15 16 16 18 17 18 18 17 17 17 17 17
35 34 30 24 26 24 22 19 19 19 20 23 22 22 25 30 32 34 35 32 33 30 30 27 22 23 24 18 17 19 17 17 16 15 15 14 14 14 13 13 12 12 12
42 42 39 36 35 34 35 35 31 29 29 32 29 30 33 35 40 38 39 40 42 40 37 36 31 28 25 25 24 23 22 20 19 19 17 15 14 12 11 9 8 7 8
47 48 46 45 45 44 46 48 46 43 41 39 42 40 43 45 46 45 47 48 49 50 50 51 45 40 34 28 28 27 25 24 23 22 21 18 16 13 10 7 5 3 5
54 55 54 52 51 54 53 54 57 58 55 52 51 51 51 52 55 54 53 56 59 59 59 61 59 58 54 45 36 33 30 29 27 25 22 21 19 17 14 10 5 2 4
62 63 62 61 60 59 60 60 65 69 68 66 59 60 62 63 67 66 64 66 67 66 68 68 69 69 66 59 50 41 38 36 33 30 27 24 23 21 19 15 11 7 6
71 69 69 69 67 69 66 66 72 73 74 75 74 70 59 71 80 75 77 76 72 75 76 75 75 77 75 72 65 51 44 42 41 35 32 29 26 26 24 20 16 13 9
78 77 76 73 74 75 80 77 77 80 81 79 84 74 27 40 55 62 73 84 85 85 83 84 86 82 85 83 76 71 62 51 48 42 37 34 33 33 29 24 21 16 12
83 83 82 81 79 77 77 78 79 84 90 88 88 91 91 97 57 51 60 62 81 89 91 94 91 94 93 94 87 81 74 68 60 56 48 39 38 38 34 31 27 20 14
77 81 81 79 81 79 81 82 84 89 92 93 91 94 97 99 104 96 70 71 76 76 90 97 100 97 98 99 99 90 91 80 75 74 65 58 48 44 40 36 31 23 16
75 71 69 73 78 81 84 89 89 92 90 91 107 93 100 96 98 105 106 105 120 105 103 91 98 98 101 105 107 98 99 89 84 81 73 65 57 51 46 40 33 29 18
72 71 67 68 75 78 78 80 85 88 91 95 97 112 108 104 93 110 91 91 100 94 106 110 105 98 98 103 110 107 113 99 91 83 73 70 63 55 49 43 33 36 27
61 60 62 63 66 70 74 78 87 86 89 93 96 101 102 111 107 108 111 93 94 96 101 101 99 104 104 97 101 111 123 110 99 83 78 76 66 59 51 43 36 40 29
49 51 53 57 59 63 67 71 80 88 92 95 98 97 102 106 104 107 107 106 105 82 89 85 87 88 90 93 95 99 122 111 99 91 80 78 67 60 53 42 37 44 32
37 41 45 50 53 57 61 67 73 79 86 92 96 97 100 100 102 101 106 105 105 111 109 93 89 88 82 82 80 85 96 100 98 94 78 78 63 62 53 56 38 47 33
44 46 48 50 53 56 59 64 72 77 84 87 91 96 100 98 100 98 95 100 106 102 114 114 105 101 96 90 90 82 80 89 100 90 79 71 67 63 53 52 46 48 36
54 56 59 62 64 66 66 69 72 76 81 86 88 90 95 91 91 88 95 104 100 100 104 109 105 104 102 97 86 77 78 85 92 82 80 73 71 59 67 49 51 47 47
66 68 70 72 73 71 73 75 78 81 83 84 84 88 87 84 88 88 91 95 97 92 95 99 102 103 99 90 81 76 69 75 80 76 80 80 69 67 56 47 51 50 50
61 65 70 75 76 78 79 78 79 80 82 84 84 84 83 82 85 84 84 85 86 90 93 92 96 97 94 90 81 75 73 78 86 87 94 78 73 68 61 51 53 52 47
58 59 61 63 69 75 78 79 79 81 82 83 83 82 80 80 82 78 79 80 83 89 93 92 92 92 93 89 87 79 77 77 79 80 80 77 78 72 67 56 60 48 45
63 64 63 64 67 68 69 71 74 78 80 82 83 80 77 75 74 73 75 76 84 81 88 90 89 94 90 89 84 83 80 72 70 79 71 81 80 78 61 59 54 45 47
74 72 68 68 70 67 65 66 69 74 78 79 78 77 77 76 71 72 73 74 81 81 78 80 81 82 79 80 82 78 79 82 82 77 85 88 82 70 57 58 49 47 49
78 76 77 75 75 75 76 73 65 66 72 77 76 74 72 73 69 63 66 72 74 76 71 68 75 73 59 65 65 68 73 68 69 65 66 80 67 61 60 52 49 46 51
83 79 75 76 76 74 69 71 72 69 68 69 67 65 68 69 67 60 67 68 67 66 60 56 58 60 43 53 55 64 66 64 66 65 61 54 48 50 51 48 45 48 54
79 80 84 80 77 77 70 66 62 61 67 68 65 61 60 62 63 58 57 55 54 51 47 44 45 45 40 42 46 48 50 56 62 53 55 53 50 45 39 47 45 52 49
Wind_Direction_500mb
242 237 238 231 235 226 207 195 174 334 318 294 271 253 214 226 230 241 248 228 212 211 207 179 166 172 158 157 150 147 143 138 133 130 123 118 111 105 100 96 88 79 69
244 242 249 241 240 238 225 223 226 241 281 277 268 254 245 247 258 248 242 231 213 218 222 218 191 183 179 176 169 166 160 158 151 148 138 132 124 119 108 101 93 85 74
248 245 245 256 253 254 240 254 266 269 270 273 273 272 256 253 260 260 256 246 249 229 228 234 224 202 191 198 197 184 185 183 175 175 164 152 143 135 125 113 98 85 71
251 249 249 250 253 253 252 249 254 265 272 270 267 271 260 264 259 264 260 257 254 253 235 224 223 214 219 204 199 201 199 200 192 185 181 175 165 157 147 134 119 90 61
253 255 250 252 252 255 255 251 256 259 255 261 264 258 257 249 252 261 263 261 261 258 254 251 242 243 237 224 216 216 214 206 207 202 199 195 190 184 178 170 162 121 39
256 254 256 256 253 254 257 258 256 258 261 262 260 259 257 256 254 257 260 256 257 261 259 257 255 257 261 261 230 221 219 215 217 215 210 208 207 210 211 213 219 265 344
261 259 261 259 256 258 261 262 258 258 259 257 257 257 256 256 255 257 260 259 256 255 257 259 256 257 258 258 251 228 220 223 218 220 220 219 223 231 234 238 248 265 303
266 264 262 262 263 262 260 263 261 264 264 258 257 252 249 253 256 258 258 259 262 260 258 257 256 252 255 257 252 241 228 228 227 222 222 225 233 242 246 249 257 269 296
266 266 265 265 265 264 262 264 264 263 262 261 258 255 252 251 258 263 264 258 257 255 257 258 254 256 253 251 251 250 237 229 233 224 227 227 236 244 247 251 258 266 285
268 267 268 267 266 265 267 269 268 269 262 261 255 255 262 258 261 270 265 266 260 255 259 254 256 253 253 250 247 247 239 236 226 228 233 232 239 245 246 249 256 265 278
272 270 271 273 273 273 272 270 270 268 266 261 266 264 258 257 258 257 265 266 260 263 264 255 253 254 252 251 248 245 239 236 233 237 242 247 246 248 247 249 253 259 268
276 274 271 272 273 273 271 271 270 270 272 268 275 262 262 264 265 261 261 279 266 269 268 263 264 258 258 251 248 247 240 236 233 236 247 247 247 246 246 247 250 259 265
277 278 277 273 270 271 271 271 272 273 273 272 272 266 266 273 274 267 262 282 268 277 273 266 268 265 265 258 250 247 241 236 233 235 240 245 243 242 243 244 248 264 264
279 278 277 273 271 271 270 268 268 269 269 270 269 272 272 273 269 273 265 274 267 275 276 268 277 270 269 268 256 246 243 241 231 230 234 240 237 238 238 239 254 260 259
287 283 278 275 271 268 266 265 263 265 267 269 270 271 272 272 272 274 273 274 269 270 267 274 277 276 274 271 266 254 246 249 232 227 226 235 232 232 234 237 247 257 262
298 292 286 282 277 273 270 268 266 265 265 267 269 270 271 271 274 273 277 276 272 271 269 275 271 275 275 270 266 264 256 246 227 225 222 230 226 233 228 242 243 252 259
301 299 297 292 287 282 277 273 271 271 269 269 268 270 271 271 271 274 276 275 272 270 270 275 277 275 272 269 270 260 253 239 224 218 218 223 232 230 229 240 243 251 254
301 298 296 295 294 293 291 287 283 278 274 273 274 273 272 274 275 274 275 275 272 275 273 274 276 273 274 275 267 258 248 235 228 211 219 225 227 228 235 233 243 249 255
304 302 299 297 294 292 290 290 288 284 279 276 273 272 271 272 271 270 271 272 274 277 275 273 271 272 271 269 262 253 240 231 222 206 217 222 229 230 237 230 245 243 256
304 301 300 298 297 295 293 291 288 286 283 280 278 275 275 272 272 273 273 273 274 273 273 272 269 269 268 265 257 240 229 222 216 206 215 219 225 230 240 233 237 242 256
311 307 305 302 300 297 295 293 290 288 284 282 280 279 277 275 275 275 274 273 272 274 272 268 264 264 261 253 244 234 228 225 218 219 206 216 221 230 231 235 240 247 255
318 313 309 306 303 300 299 295 290 286 284 281 279 278 277 277 275 274 273 273 272 271 271 269 270 265 267 258 240 227 219 211 206 206 208 219 225 237 233 241 241 245 257
314 312 311 311 309 307 302 298 294 287 283 280 279 279 277 276 275 275 273 270 269 269 266 267 266 264 260 262 250 224 222 216 209 204 206 218 231 235 236 241 239 245 260
314 313 311 308 304 304 305 303 296 288 284 281 280 279 278 281 281 279 275 269 268 269 267 263 261 259 267 266 252 239 221 206 209 210 216 222 228 234 238 234 238 253 255
312 312 311 310 310 309 306 303 299 292 287 285 284 282 282 282 282 281 276 272 270 269 268 260 257 258 259 258 234 213 207 206 204 214 218 226 229 223 224 231 237 246 254
310 312 313 314 312 310 308 303 297 293 292 290 288 286 285 283 281 277 275 273 270 271 269 259 243 241 236 225 211 214 219 214 213 213 221 223 224 222 224 232 237 242 255
Wind_Speed_850mb
22 21 18 17 14 11 9 7 2 2 5 7 10 13 20 21 21 22 20 19 17 18 15 18 17 16 18 15 18 17 18 18 17 18 21 20 21 21 21 22 21 21 22
29 27 21 23 20 16 15 15 14 11 11 14 13 13 18 25 29 29 29 28 24 22 20 17 19 20 16 15 15 16 16 15 16 16 18 17 18 18 17 17 17 17 17
35 34 30 24 26 24 22 19 19 19 20 23 22 22 25 30 32 34 35 32 33 30 30 27 22 23 24 18 17 19 17 17 16 15 15 14 14 14 13 13 12 12 12
42 42 39 36 35 34 35 35 31 29 29 32 29 30 33 35 40 38 39 40 42 40 37 36 31 28 25 25 24 23 22 20 19 19 17 15 14 12 11 9 8 7 8
47 48 46 45 45 44 46 48 46 43 41 39 42 40 43 45 46 45 47 48 49 50 50 51 45 40 34 28 28 27 25 24 23 22 21 18 16 13 10 7 5 3 5
54 55 54 52 51 54 53 54 57 58 55 52 51 51 51 52 55 54 53 56 59 59 59 61 59 58 54 45 36 33 30 29 27 25 22 21 19 17 14 10 5 2 4
62 63 62 61 60 59 60 60 65 69 68 66 59 60 62 63 67 66 64 66 67 66 68 68 69 69 66 59 50 41 38 36 33 30 27 24 23 21 19 15 11 7 6
71 69 69 69 67 69 66 66 72 73 74 75 74 70 59 71 80 75 77 76 72 75 76 75 75 77 75 72 65 51 44 42 41 35 32 29 26 26 24 20 16 13 9
78 77 76 73 74 75 80 77 77 80 81 79 84 74 27 40 55 62 73 84 85 85 83 84 86 82 85 83 76 71 62 51 48 42 37 34 33 33 29 24 21 16 12
83 83 82 81 79 77 77 78 79 84 90 88 88 91 91 97 57 51 60 62 81 89 91 94 91 94 93 94 87 81 74 68 60 56 48 39 38 38 34 31 27 20 14
77 81 81 79 81 79 81 82 84 89 92 93 91 94 97 99 104 96 70 71 76 76 90 97 100 97 98 99 99 90 91 80 75 74 65 58 48 44 40 36 31 23 16
75 71 69 73 78 81 84 89 89 92 90 91 107 93 100 96 98 105 106 105 120 105 103 91 98 98 101 105 107 98 99 89 84 81 73 65 57 51 46 40 33 29 18
72 71 67 68 75 78 78 80 85 88 91 95 97 112 108 104 93 110 91 91 100 94 106 110 105 98 98 103 110 107 113 99 91 83 73 70 63 55 49 43 33 36 27
61 60 62 63 66 70 74 78 87 86 89 93 96 101 102 111 107 108 111 93 94 96 101 101 99 104 104 97 101 111 123 110 99 83 78 76 66 59 51 43 36 40 29
49 51 53 57 59 63 67 71 80 88 92 95 98 97 102 106 104 107 107 106 105 82 89 85 87 88 90 93 95 99 122 111 99 91 80 78 67 60 53 42 37 44 32
37 41 45 50 53 57 61 67 73 79 86 92 96 97 100 100 102 101 106 105 105 111 109 93 89 88 82 82 80 85 96 100 98 94 78 78 63 62 53 56 38 47 33
44 46 48 50 53 56 59 64 72 77 84 87 91 96 100 98 100 98 95 100 106 102 114 114 105 101 96 90 90 82 80 89 100 90 79 71 67 63 53 52 46 48 36
54 56 59 62 64 66 66 69 72 76 81 86 88 90 95 91 91 88 95 104 100 100 104 109 105 104 102 97 86 77 78 85 92 82 80 73 71 59 67 49 51 47 47
66 68 70 72 73 71 73 75 78 81 83 84 84 88 87 84 88 88 91 95 97 92 95 99 102 103 99 90 81 76 69 75 80 76 80 80 69 67 56 47 51 50 50
61 65 70 75 76 78 79 78 79 80 82 84 84 84 83 82 85 84 84 85 86 90 93 92 96 97 94 90 81 75 73 78 86 87 94 78 73 68 61 51 53 52 47
58 59 61 63 69 75 78 79 79 81 82 83 83 82 80 80 82 78 79 80 83 89 93 92 92 92 93 89 87 79 77 77 79 80 80 77 78 72 67 56 60 48 45
63 64 63 64 67 68 69 71 74 78 80 82 83 80 77 75 74 73 75 76 84 81 88 90 89 94 90 89 84 83 80 72 70 79 71 81 80 78 61 59 54 45 47
74 72 68 68 70 67 65 66 69 74 78 79 78 77 77 76 71 72 73 74 81 81 78 80 81 82 79 80 82 78 79 82 82 77 85 88 82 70 57 58 49 47 49
78 76 77 75 75 75 76 73 65 66 72 77 76 74 72 73 69 63 66 72 74 76 71 68 75 73 59 65 65 68 73 68 69 65 66 80 67 61 60 52 49 46 51
83 79 75 76 76 74 69 71 72 69 68 69 67 65 68 69 67 60 67 68 67 66 60 56 58 60 43 53 55 64 66 64 66 65 61 54 48 50 51 48 45 48 54
79 80 84 80 77 77 70 66 62 61 67 68 65 61 60 62 63 58 57 55 54 51 47 44 45 45 40 42 46 48 50 56 62 53 55 53 50 45 39 47 45 52 49
Wind_Direction_850mb
242 237 238 231 235 226 207 195 174 334 318 294 271 253 214 226 230 241 248 228 212 211 207 179 166 172 158 157 150 147 143 138 133 130 123 118 111 105 100 96 88 79 69
244 242 249 241 240 238 225 223 226 241 281 277 268 254 245 247 258 248 242 231 213 218 222 218 191 183 179 176 169 166 160 158 151 148 138 132 124 119 108 101 93 85 74
248 245 245 256 253 254 240 254 266 269 270 273 273 272 256 253 260 260 256 246 249 229 228 234 224 202 191 198 197 184 185 183 175 175 164 152 143 135 125 113 98 85 71
251 249 249 250 253 253 252 249 254 265 272 270 267 271 260 264 259 264 260 257 254 253 235 224 223 214 219 204 199 201 199 200 192 185 181 175 165 157 147 134 119 90 61
253 255 250 252 252 255 255 251 256 259 255 261 264 258 257 249 252 261 263 261 261 258 254 251 242 243 237 224 216 216 214 206 207 202 199 195 190 184 178 170 162 121 39
256 254 256 256 253 254 257 258 256 258 261 262 260 259 257 256 254 257 260 256 257 261 259 257 255 257 261 261 230 221 219 215 217 215 210 208 207 210 211 213 219 265 344
261 259 261 259 256 258 261 262 258 258 259 257 257 257 256 256 255 257 260 259 256 255 257 259 256 257 258 258 251 228 220 223 218 220 220 219 223 231 234 238 248 265 303
266 264 262 262 263 262 260 263 261 264 264 258 257 252 249 253 256 258 258 259 262 260 258 257 256 252 255 257 252 241 228 228 227 222 222 225 233 242 246 249 257 269 296
266 266 265 265 265 264 262 264 264 263 262 261 258 255 252 251 258 263 264 258 257 255 257 258 254 256 253 251 251 250 237 229 233 224 227 227 236 244 247 251 258 266 285
268 267 268 267 266 265 267 269 268 269 262 261 255 255 262 258 261 270 265 266 260 255 259 254 256 253 253 250 247 247 239 236 226 228 233 232 239 245 246 249 256 265 278
272 270 271 273 273 273 272 270 270 268 266 261 266 264 258 257 258 257 265 266 260 263 264 255 253 254 252 251 248 245 239 236 233 237 242 247 246 248 247 249 253 259 268
276 274 271 272 273 273 271 271 270 270 272 268 275 262 262 264 265 261 261 279 266 269 268 263 264 258 258 251 248 247 240 236 233 236 247 247 247 246 246 247 250 259 265
277 278 277 273 270 271 271 271 272 273 273 272 272 266 266 273 274 267 262 282 268 277 273 266 268 265 265 258 250 247 241 236 233 235 240 245 243 242 243 244 248 264 264
279 278 277 273 271 271 270 268 268 269 269 270 269 272 272 273 269 273 265 274 267 275 276 268 277 270 269 268 256 246 243 241 231 230 234 240 237 238 238 239 254 260 259
287 283 278 275 271 268 266 265 263 265 267 269 270 271 272 272 272 274 273 274 269 270 267 274 277 276 274 271 266 254 246 249 232 227 226 235 232 232 234 237 247 257 262
298 292 286 282 277 273 270 268 266 265 265 267 269 270 271 271 274 273 277 276 272 271 269 275 271 275 275 270 266 264 256 246 227 225 222 230 226 233 228 242 243 252 259
301 299 297 292 287 282 277 273 271 271 269 269 268 270 271 271 271 274 276 275 272 270 270 275 277 275 272 269 270 260 253 239 224 218 218 223 232 230 229 240 243 251 254
301 298 296 295 294 293 291 287 283 278 274 273 274 273 272 274 275 274 275 275 272 275 273 274 276 273 274 275 267 258 248 235 228 211 219 225 227 228 235 233 243 249 255
304 302 299 297 294 292 290 290 288 284 279 276 273 272 271 272 271 270 271 272 274 277 275 273 271 272 271 269 262 253 240 231 222 206 217 222 229 230 237 230 245 243 256
304 301 300 298 297 295 293 291 288 286 283 280 278 275 275 272 272 273 273 273 274 273 273 272 269 269 268 265 257 240 229 222 216 206 215 219 225 230 240 233 237 242 256
311 307 305 302 300 297 295 293 290 288 284 282 280 279 277 275 275 275 274 273 272 274 272 268 264 264 261 253 244 234 228 225 218 219 206 216 221 230 231 235 240 247 255
318 313 309 306 303 300 299 295 290 286 284 281 279 278 277 277 275 274 273 273 272 271 271 269 270 265 267 258 240 227 219 211 206 206 208 219 225 237 233 241 241 245 257
314 312 311 311 309 307 302 298 294 287 283 280 279 279 277 276 275 275 273 270 269 269 266 267 266 264 260 262 250 224 222 216 209 204 206 218 231 235 236 241 239 245 260
314 313 311 308 304 304 305 303 296 288 284 281 280 279 278 281 281 279 275 269 268 269 267 263 261 259 267 266 252 239 221 206 209 210 216 222 228 234 238 234 238 253 255
312 312 311 310 310 309 306 303 299 292 287 285 284 282 282 282 282 281 276 272 270 269 268 260 257 258 259 258 234 213 207 206 204 214 218 226 229 223 224 231 237 246 254
310 312 313 314 312 310 308 303 297 293 292 290 288 286 285 283 281 277 275 273 270 271 269 259 243 241 236 225 211 214 219 214 213 213 221 223 224 222 224 232 237 242 255